| time (UTC) | temp F | wind direction | speed knots | gust knots | rain 1hr in | rain 24hr in | rain mn in | humidity % | barometer mb |
| 20260507024049 | 43 | 136 | 0.9 | 0.9 | 0.03 | 2.33 | 2.21 | 99 | 1009.5 |
| 20260507023049 | 44 | 136 | 0.0 | 0.9 | 0.03 | 2.33 | 2.21 | 99 | 1009.5 |
| 20260507022030 | 44 | 136 | 0.9 | 0.9 | 0.04 | 2.32 | 2.20 | 99 | 1009.5 |
| 20260507021030 | 43 | 136 | 0.0 | 0.9 | 0.05 | 2.32 | 2.20 | 99 | 1009.5 |
| 20260507020030 | 44 | 136 | 0.0 | 0.9 | 0.06 | 2.32 | 2.19 | 99 | 1009.7 |
| 20260507015030 | 44 | 136 | 0.0 | 0.9 | 0.07 | 2.31 | 2.19 | 99 | 1009.7 |
| 20260507014030 | 44 | 135 | 0.0 | 0.9 | 0.07 | 2.31 | 2.18 | 99 | 1009.6 |
| 20260507013030 | 44 | 135 | 0.0 | 0.9 | 0.06 | 2.29 | 2.17 | 99 | 1009.6 |
| 20260507012030 | 44 | 136 | 0.0 | 0.0 | 0.06 | 2.29 | 2.16 | 99 | 1009.4 |
| 20260507011031 | 44 | 135 | 0.0 | 0.0 | 0.05 | 2.27 | 2.15 | 99 | 1009.5 |
| 20260507010031 | 44 | 136 | 0.9 | 0.9 | 0.05 | 2.26 | 2.14 | 99 | 1009.4 |
| 20260507005051 | 44 | 136 | 0.0 | 0.9 | 0.05 | 2.25 | 2.12 | 99 | 1009.2 |
| 20260507004031 | 44 | 135 | 0.0 | 0.9 | 0.06 | 2.23 | 2.11 | 99 | 1009.2 |
| 20260507003032 | 44 | 136 | 0.0 | 0.9 | 0.08 | 2.23 | 2.11 | 99 | 1009.1 |
| 20260507002031 | 44 | 136 | 0.9 | 0.9 | 0.08 | 2.23 | 2.10 | 99 | 1009.0 |
| 20260507001032 | 44 | 135 | 0.0 | 0.9 | 0.08 | 2.22 | 2.10 | 99 | 1008.7 |
| 20260507000051 | 44 | 137 | 0.9 | 2.6 | 0.08 | 2.21 | 2.09 | 99 | 1008.5 |
| 20260506235032 | 44 | 38 | 0.9 | 4.3 | 0.07 | 2.20 | 2.08 | 99 | 1008.3 |
| 20260506234017 | 44 | 136 | 0.9 | 1.7 | 0.06 | 2.17 | 2.05 | 99 | 1008.3 |
| 20260506233037 | 44 | 137 | 0.9 | 0.9 | 0.04 | 2.15 | 2.03 | 99 | 1008.3 |
| 20260506232017 | 44 | 136 | 0.0 | 0.9 | 0.05 | 2.14 | 2.02 | 99 | 1007.9 |
| 20260506231018 | 44 | 126 | 0.9 | 1.7 | 0.05 | 2.14 | 2.02 | 99 | 1007.9 |
| 20260506230018 | 44 | 8 | 1.7 | 2.6 | 0.05 | 2.13 | 2.01 | 99 | 1007.8 |
| 20260506225038 | 44 | 345 | 1.7 | 2.6 | 0.04 | 2.13 | 2.00 | 99 | 1007.7 |
| 20260506224038 | 44 | 341 | 1.7 | 2.6 | 0.03 | 2.11 | 1.99 | 99 | 1007.6 |
| 20260506223113 | 44 | 325 | 0.9 | 1.7 | 0.03 | 2.10 | 1.98 | 99 | 1007.6 |
| 20260506222018 | 44 | 342 | 0.9 | 2.6 | 0.02 | 2.10 | 1.97 | 99 | 1007.3 |
| 20260506221018 | 44 | 334 | 1.7 | 3.5 | 0.02 | 2.09 | 1.97 | 99 | 1007.2 |
| 20260506220018 | 44 | 14 | 1.7 | 2.6 | 0.02 | 2.09 | 1.97 | 99 | 1007.0 |
| 20260506215018 | 44 | 349 | 0.9 | 1.7 | 0.02 | 2.09 | 1.97 | 99 | 1006.8 |
| 20260506214019 | 44 | 345 | 0.9 | 2.6 | 0.02 | 2.08 | 1.96 | 99 | 1006.7 |
| 20260506213054 | 45 | 315 | 0.9 | 3.5 | 0.02 | 2.08 | 1.96 | 99 | 1006.7 |
| 20260506212039 | 45 | 330 | 1.7 | 2.6 | 0.02 | 2.08 | 1.95 | 99 | 1006.8 |
| 20260506211019 | 45 | 11 | 0.0 | 0.9 | 0.03 | 2.07 | 1.95 | 99 | 1006.7 |
| 20260506210019 | 44 | 323 | 0.9 | 2.6 | 0.04 | 2.07 | 1.95 | 99 | 1006.6 |
| 20260506205019 | 44 | 350 | 1.7 | 1.7 | 0.06 | 2.07 | 1.94 | 99 | 1006.6 |
| 20260506204019 | 44 | 340 | 1.7 | 4.3 | 0.08 | 2.06 | 1.94 | 99 | 1006.5 |
| 20260506203019 | 44 | 352 | 1.7 | 3.5 | 0.09 | 2.06 | 1.94 | 99 | 1006.6 |
| 20260506202020 | 44 | 342 | 1.7 | 2.6 | 0.10 | 2.06 | 1.93 | 99 | 1006.6 |
| 20260506201019 | 44 | 29 | 1.7 | 3.5 | 0.12 | 2.05 | 1.92 | 99 | 1006.5 |
| 20260506200020 | 44 | 61 | 0.9 | 3.5 | 0.14 | 2.04 | 1.91 | 99 | 1006.6 |
| 20260506195019 | 44 | 88 | 1.7 | 4.3 | 0.19 | 2.03 | 1.88 | 99 | 1006.8 |
| 20260506194020 | 44 | 97 | 2.6 | 4.3 | 0.21 | 2.15 | 1.86 | 99 | 1006.8 |
| 20260506193040 | 44 | 342 | 1.7 | 2.6 | 0.24 | 2.14 | 1.85 | 99 | 1006.8 |
| 20260506192020 | 44 | 342 | 0.9 | 3.5 | 0.26 | 2.12 | 1.83 | 99 | 1006.7 |
| 20260506191020 | 44 | 350 | 0.9 | 2.6 | 0.26 | 2.10 | 1.80 | 99 | 1006.9 |
| 20260506190018 | 44 | 1 | 0.9 | 4.3 | 0.27 | 2.07 | 1.77 | 99 | 1006.9 |
| 20260506185021 | 44 | 72 | 0.9 | 2.6 | 0.24 | 1.99 | 1.69 | 99 | 1006.8 |
| 20260506184021 | 44 | 121 | 1.7 | 2.6 | 0.29 | 1.94 | 1.65 | 99 | 1007.0 |
| 20260506183021 | 44 | 27 | 2.6 | 3.5 | 0.28 | 1.90 | 1.61 | 99 | 1006.7 |
| 20260506182021 | 44 | 26 | 2.6 | 4.3 | 0.29 | 1.86 | 1.57 | 99 | 1006.8 |
| 20260506181021 | 44 | 25 | 2.6 | 3.5 | 0.31 | 1.84 | 1.54 | 99 | 1006.9 |
| 20260506180021 | 44 | 13 | 2.6 | 4.3 | 0.32 | 1.80 | 1.50 | 99 | 1006.9 |
| 20260506175044 | 45 | 15 | 2.6 | 5.2 | 0.31 | 1.75 | 1.45 | 99 | 1007.0 |
| 20260506174019 | 45 | 3 | 1.7 | 5.2 | 0.26 | 1.66 | 1.36 | 99 | 1006.6 |
| 20260506173041 | 45 | 97 | 0.9 | 0.9 | 0.25 | 1.63 | 1.32 | 99 | 1006.6 |
| 20260506172021 | 46 | 16 | 0.9 | 1.7 | 0.28 | 1.58 | 1.28 | 99 | 1006.8 |
| 20260506171021 | 46 | 18 | 0.9 | 1.7 | 0.28 | 1.53 | 1.23 | 99 | 1007.1 |
| 20260506170022 | 46 | 21 | 0.9 | 2.6 | 0.28 | 1.48 | 1.18 | 99 | 1007.2 |
| 20260506165102 | 46 | 18 | 1.7 | 2.6 | 0.30 | 1.44 | 1.14 | 99 | 1007.3 |
| 20260506164022 | 46 | 37 | 1.7 | 3.5 | 0.37 | 1.40 | 1.10 | 99 | 1007.4 |
| 20260506163102 | 46 | 11 | 1.7 | 1.7 | 0.40 | 1.37 | 1.07 | 99 | 1007.4 |
| 20260506162022 | 46 | 347 | 0.9 | 1.7 | 0.39 | 1.30 | 1.00 | 99 | 1007.1 |
| 20260506161022 | 46 | 21 | 0.9 | 1.7 | 0.41 | 1.25 | 0.95 | 99 | 1007.3 |
| 20260506160022 | 46 | 25 | 0.9 | 1.7 | 0.43 | 1.21 | 0.91 | 98 | 1007.4 |
| 20260506155023 | 46 | 6 | 0.9 | 1.7 | 0.43 | 1.14 | 0.84 | 98 | 1007.6 |
| 20260506154023 | 46 | 13 | 1.7 | 2.6 | 0.40 | 1.03 | 0.73 | 98 | 1007.5 |
| 20260506153103 | 46 | 10 | 0.9 | 1.7 | 0.38 | 0.97 | 0.67 | 98 | 1007.7 |
| 20260506152023 | 47 | 333 | 1.7 | 2.6 | 0.36 | 0.91 | 0.61 | 98 | 1007.8 |
| 20260506151023 | 47 | 343 | 1.7 | 1.7 | 0.31 | 0.84 | 0.54 | 98 | 1008.0 |
| 20260506150024 | 47 | 340 | 1.7 | 2.6 | 0.27 | 0.78 | 0.48 | 98 | 1008.3 |
| 20260506145024 | 47 | 3 | 0.9 | 1.7 | 0.22 | 0.71 | 0.41 | 98 | 1008.5 |
| 20260506144024 | 47 | 44 | 0.0 | 0.9 | 0.16 | 0.63 | 0.33 | 97 | 1008.4 |